EW7670 Weather Reports


time (UTC)temp
C
wind
direction
speed
KPH
gust
KPH
rain 1hr
cm
rain 24hr
cm
rain mn
cm
humidity
%
barometer
mb
20260506164652 23 193 22.5 37.0 0.00 0.00 0.00 83 1014.6
20260506163023 22 194 22.5 35.4 0.00 0.00 0.00 82 1014.7
20260506161619 23 216 19.3 32.2 0.00 0.00 0.00 80 1014.8
20260506160032 23 208 17.7 30.6 0.00 0.00 0.00 80 1014.9
20260506154531 22 224 17.7 33.8 0.00 0.00 0.00 81 1014.7
20260506151655 22 211 22.5 35.4 0.00 0.00 0.00 82 1015.1
20260506143027 22 206 16.1 25.7 0.00 0.00 0.00 83 1015.1
20260506134544 22 203 17.7 25.7 0.00 0.00 0.00 81 1014.9
20260506133059 22 186 17.7 32.2 0.00 0.00 0.00 78 1014.8
20260506121637 21 183 19.3 32.2 0.00 0.00 0.00 78 1015.0
20260506104617 19 190 12.9 24.1 0.00 0.00 0.00 78 1015.0
20260506100045 18 206 14.5 25.7 0.00 0.00 0.00 82 1015.0
20260506093148 18 210 9.7 20.9 0.00 0.00 0.00 83 1015.2
20260506081638 19 190 14.5 25.7 0.00 0.00 0.00 81 1015.0
20260506070141 20 207 14.5 22.5 0.00 0.00 0.00 82 1015.2
20260506044530 20 171 14.5 33.8 0.00 0.00 0.00 77 1016.2
20260506043102 20 179 17.7 37.0 0.00 0.00 0.00 77 1016.4
20260506041555 20 161 17.7 35.4 0.00 0.00 0.00 77 1016.4
20260506040129 20 186 17.7 33.8 0.00 0.00 0.00 76 1016.4
20260506033135 20 200 19.3 38.6 0.00 0.00 0.00 77 1016.4
20260506021700 20 197 19.3 37.0 0.00 0.00 0.00 76 1016.8
20260506020021 20 183 17.7 37.0 0.00 0.00 0.00 77 1016.8
20260506013152 20 175 20.9 35.4 0.00 0.00 0.00 75 1016.7
20260506010118 20 194 24.1 48.3 0.00 0.00 0.00 77 1016.5
20260505234513 20 195 27.4 45.1 0.00 0.00 0.00 78 1015.7
20260505220040 21 213 17.7 32.2 0.00 0.00 0.00 79 1015.7
20260505211657 21 201 20.9 33.8 0.00 0.00 0.00 77 1015.4
20260505204614 21 214 17.7 32.2 0.00 0.00 0.00 77 1015.8
20260505194655 21 236 17.7 30.6 0.00 0.00 0.00 77 1016.3
20260505193106 21 210 17.7 29.0 0.00 0.00 0.00 79 1016.5
20260505183150 21 217 16.1 25.7 0.00 0.00 0.00 79 1016.7
20260505180155 21 208 16.1 25.7 0.00 0.00 0.00 78 1016.9
20260505171516 21 212 16.1 24.1 0.00 0.00 0.00 73 1017.0